Torna al catalogo

STARLINK-2739

AttivoComunicazioniVLEO
NORAD 48639·PAYLOAD·🇺🇸 United States

Lanciato May 26, 2021 da Cape Canaveral Space Force Station

Loading…

Prossimi Passaggi (prossime 24 ore)

TLE

AggiornatoSource: CelesTrak SupGP

Epoca: Sep 15, 2026, 02:09 UTC

1 48639C 21044B   26258.09006944  .00045302  00000+0  14561-2 0  2586
2 48639  53.1600 312.4237 0001312  88.7861 310.1820 15.31694912    11

Traccia STARLINK-2739 in tempo reale con AllMySat

Download on the App Store